Notices

What's New in latest Release from April 7th, 2021:

- Updated Glossary, including Speed of Maximum Gust, and Total Hourly Precipitation

- Updated national and regional climate services offices contacts and prices information

- Addition of station inventory lists for 1981-2010, 1971-2000, and 1961-1990 Normals.

If you haven't already, please take our survey and provide feedback about our website: https://eccc.sondage-survey.ca/f/LanguageSelection.aspx?s=442ca660-fcf1-47c0-95a9-59707d6fd709

Hourly Data Report for March 31, 2017

MIRAMICHI RCS
NEW BRUNSWICK

47°00'34.000" N
65°27'54.000" W
33.00 m
8100989
71744
ACQ

Download Data

Hourly Data (March 2017)
Hourly Data Report for March 31, 2017
TIME
LST
Temp Definition
°C
Dew Point Definition
°C
Rel Hum Definition
%
Precip. Amount Definition
mm

Wind Dir Definition
10's deg

Wind Spd Definition
km/h
Visibility Definition
km
Stn Press Definition
kPa
Hmdx Definition


Wind Chill Definition


Weather Definition


00:00 -1.9 -7.8 64 0.0 32 8   101.61   -5 LegendNANA
01:00 -2.3 -8.5 62 0.0 35 9   101.58   -6 LegendNANA
02:00 -2.7 -8.8 63 0.0 33 8   101.58   -6 LegendNANA
03:00 -3.2 -9.0 64 0.0 34 8   101.56   -6 LegendNANA
04:00 -3.8 -9.3 65 0.0 33 7   101.58   -7 LegendNANA
05:00 -4.4 -9.5 68 0.0 32 8   101.65   -8 LegendNANA
06:00 -4.9 -9.6 69 0.0 33 8   101.67   -8 LegendNANA
07:00 -4.3 -9.6 66 0.0 33 7   101.72   -7 LegendNANA
08:00 -2.4 -9.5 58 0.0 33 10   101.77   -6 LegendNANA
09:00 -0.5 -9.5 51 0.0 36 12   101.78   -4 LegendNANA
10:00 0.5 -9.3 48 0.0 1 13   101.77     LegendNANA
11:00 1.7 -8.5 47 0.0 1 14   101.76     LegendNANA
12:00 2.8 -8.2 44 0.0 35 10   101.70     LegendNANA
13:00 3.4 -7.5 45 0.0 2 13   101.67     LegendNANA
14:00 3.0 -6.4 50 0.0 8 13   101.64     LegendNANA
15:00 3.2 -5.5 53 0.0 8 11   101.61     LegendNANA
16:00 2.2 -4.8 60 0.0 8 12   101.63     LegendNANA
17:00 1.3 -6.3 57 0.0 7 16   101.63     LegendNANA
18:00 -0.6 -7.0 62 0.0 7 19   101.69   -6 LegendNANA
19:00 -2.1 -7.6 66 0.0 7 11   101.72   -6 LegendNANA
20:00 -3.4 -8.2 69 0.0 7 10   101.75   -7 LegendNANA
21:00 -3.9 -8.5 70 0.0 8 6   101.77   -7 LegendNANA
22:00 -5.7 -9.5 75 0.0 0 1   101.77   -6 LegendNANA
23:00 -7.6 -10.9 77 0.0 27 5   101.76   -10 LegendNANA

Notes on Data Quality.

Legend

  • E = Estimated
  • M = Missing
  • NA = Not Available*
  • [empty] = Indicates an unobserved value
Date modified: